Location: DaVinci Observatory
(43.1080°N, 78.6453°W)
Time: 08:45:44
(UTC-04:00)

N. Korean satellite - Pass Details

Date: 15 October 2017
Orbit: 459 x 517 km, 97.2° (Epoch: 19 October)

Event Time Altitude Azimuth Distance (km) Brightness Sun altitude
Rises 18:59:55 0° 158° (SSE) 2,541 10.1 -6.0°
Reaches altitude 10° 19:02:00 10° 154° (SSE) 1,656 9.1 -6.4°
Maximum altitude 19:05:30 58° 75° (ENE) 563 6.6 -7.0°
Drops below altitude 10° 19:08:57 10° 356° (N) 1,640 9.2 -7.6°
Sets 19:11:01 0° 353° (N) 2,515 10.2 -8.0°
